SNAP-3 JIMI

导读

SNAP-3 JIMI是美国于2015年10月8日发射的一颗立方体微小卫星,属于SNAP-3卫星系列,作为纳米卫星技术验证项目,依托SNAP智能纳米卫星姿态传播系统,开展被动姿态稳定技术试验,验证重力梯度、磁滞阻尼等多种被动稳定控制方案,为低成本微小卫星姿态控制技术积累了宝贵的工程数据,目前在轨正常运行,持续完成预设技术验证任务。

Basic Information
目录编号:
40975
目录名称:
SNAP-3 JIMI
国际标识:
2015-058M
轨道中心:
EARTH
卫星名称:
SNAP-3 JIMI
卫星全名:
--
卫星状态:
在轨 (已飞行3984 天)
发射日期:
2015-10-08 UTC
国别 :
美国 (US)
星等 :
--
Orbit Information
数据来源 国际轨道数据
星历时间: 2026-09-03T23:38:36+0800
20小时前
查看轨道信息
半长轴: 6935.57km
偏心率: 0.0112302
轨道倾角: 64.766°
近地点辐角 24.942°
升交点赤经 331.346°
平近点角 335.707°
近地点: 479.545km
远地点: 635.321km
周期: 95.804分钟
每日圈数: 15.030713
Detailed Information
使用方式:
暂无
2D Orbit Map
3D Orbit Map
Orbit Altitude Analysis Chart
Orbit Inclination Analysis Chart
Orbit Comprehensive Analysis Chart
View Comprehensive Chart
Conjunction Data List
Event ID Objects TCA Miss Dist (km) Collision Risk Probability Collision Risk Index (CRI) Action
CDM_260903-025704-097506-340322
2026-09-03T
02:57:44+0000
1.618 km
极远距离
4.544837E-6 低风险 0.48
CDM_260905-212104-097506-482521
2026-09-05T
21:21:20+0000
1.906 km
极远距离
2.568977E-6 低风险 0.43
CDM_260906-042904-097505-613621
2026-09-06T
04:29:12+0000
2.002 km
极远距离
2.310536E-6 低风险 0.42
CDM_260906-011204-097506-341421
2026-09-06T
01:12:16+0000
2.235 km
极远距离
1.940418E-6 低风险 0.41
CDM_260905-042804-097505-771122
2026-09-05T
04:28:41+0000
2.469 km
极远距离
1.565446E-6 低风险 0.39
CDM_260904-123404-097505-908321
2026-09-04T
12:34:38+0000
2.255 km
极远距离
1.039284E-6 低风险 0.35